DMSP 5D-2 F13 DEB, 40438

Orbit data source: Space-Track

DMSP 5D-2 F13 DEB, 40438 is space debris in SSO originally from a launch on Fri, 24 Mar 1995 UTC launched from the Air Force Western Test Range (AFWTR). Debris objects in space refer to the collection of defunct objects orbiting the Earth. Examples of debris include non-operational satellites, rocket bodies, and fragments generated from explosions, collisions, or faulty payload assembly.

Loading next visibility...
Identifier
40438, 1995-015AQ
Orbit
SSO
Country
Flag of USUS
Related business
Manufacturer
Unknown
Mission
Spacecraft
Bus & Motor
Unknown
Mass
Unknown
Launch date (UTC)
1995-03-24 (31 years ago)
Launch vehicle
Unknown
Launch site
Air Force Western Test Range (AFWTR)
Object type
Payload
Rocket body
Debris
Shape & HBR
Unknown shape, 0.1 m
Radar Cross Section
Small (<0.1 m²)

Expand to show TLE details & history
Last TLE update: 1 day ago

TLE from 1 day ago
0 DMSP 5D-2 F13 DEB
1 40438U 95015AQ  25349.10073703  .00105919  00000-0  61860-2 0  9991
2 40438  98.8457  44.9340 0011288 249.8521 110.1491 15.11367560560875
Epoch: 2025-12-15T02:25Z
TLE epoch observation values (Epoch: 2025-12-15T02:25:03.679Z)
Latitude
-0.00002°
Longitude
-75.33547°
Altitude
537.757 km
Speed
7.592 km/s
True Right ascension
02h 59m 44s
True Declination
0° 00' 00"
Sunlit
Object was in full shadow at epoch
Visualization orbit readout
Latitude
Unknown
Longitude
Unknown
Altitude
Unknown
Speed
Unknown
Apparent Right ascension
Unknown
Apparent Declination
Unknown
Sunlit
N/A
Visualization observer readout
Local Sidereal Time
00:56:03
Azimuth
Unknown
Elevation
Unknown
Doppler factor
Unknown
Orbital elements
Apogee altitude
536.87 km
Perigee altitude
521.276 km
Semi-major axis
6,907.21 km
Eccentricity
0.00113
Inclination
98.8457°
RAAN
44.934°
Arg. of periapsis
249.8521°
True anomaly
110.27048°
Mean anomaly
110.1491°
Eccentric anomaly
110.20979°
Mean motion
3.78085 °/min
Orbital period
95.22 mins
BSTAR
0.006186
Loading maneuver chart data...
Computing Atmospheric mass density...

Documentation

Showing up to 5 results
|